Location: *
(49.1466°N, 1.6216°E)
Time: 05:05:53
(UTC+00:00)

Cosmos 1818 - Pass Details

Date: 25 September 2023
Orbit: 772 x 800 km, 65.0° (Epoch: 09 December)

Event Time Altitude Azimuth Distance (km) Brightness Sun altitude
Rises 18:32:05 0° 321° (NW) 3,310 7.6 -8.4°
Reaches altitude 10° 18:34:42 10° 330° (NNW) 2,381 6.6 -8.8°
Maximum altitude 18:39:46 37° 38° (NE) 1,233 4.4 -9.6°
Enters shadow 18:44:08 13° 101° (ESE) 2,143 5.1 -10.3°
